Preview of NWS' New Version of Forecast
This preview is not operational and should not be used for support decisions.

Regional Weather Roundup (RWR)

Issued by National Weather Service (NWS)

                            
000
ASUS43 KDMX 190406
RWRIA 

WEATHER ROUNDUP FOR IOWA
NATIONAL WEATHER SERVICE DES MOINES IA
1100 PM CDT THU APR 18 2019

NOTE: "FAIR" INDICATES FEW OR NO CLOUDS BELOW 12,000 FEET WITH NO
SIGNIFICANT WEATHER AND/OR OBSTRUCTIONS TO VISIBILITY.

* - THESE STATIONS ARE NOT NWS STATIONS...THUS NOT UNDER NWS
QUALITY CONTROL.  THEY ALSO DO NOT REPORT WEATHER SUCH 
AS PRECIPITATION OR FOG.  

IAZ001>003-012>014-020>022-031>034-043>046-190500-
   NORTHWEST IOWA
  
CITY           SKY/WX    TMP DP  RH WIND       PRES   REMARKS
CARROLL *      CLEAR     43  41  93 NW12      29.97F                  
CHEROKEE *     CLEAR     41  38  89 N5        30.01S                  
DENISON *      CLEAR     41  39  93 N6        30.00F                  
LE MARS *      CLEAR     45  39  81 N9        30.03S                  
SHELDON *      CLEAR     37  37 100 N7        30.01S WCI  32          
SIOUX CITY     CLOUDY    46  38  73 NW9       30.03S                  
SPENCER        CLEAR     38  34  85 NW8       30.00F WCI  32          
STORM LAKE *   CLOUDY    43  43 100 NW9       29.97F                  
$$
 
IAZ055>058-069>071-079>083-090>094-190500-
   SOUTHWEST IOWA
  
CITY           SKY/WX    TMP DP  RH WIND       PRES   REMARKS
ATLANTIC *     CLEAR     43  43 100 N9        29.97S                  
AUDUBON *      CLEAR     43  37  81 CALM      29.98F                  
CLARINDA *     CLOUDY    46  37  71 N10       29.98S                  
COUNCIL BLFS * CLEAR     45  41  87 N9G15     29.99F                  
CRESTON *      CLOUDY    46  37  71 N13       29.94S                  
HARLAN  *      PTCLDY    43  39  87 N10       29.98F                  
LAMONI         CLOUDY    48  37  65 N10       29.92S                  
RED OAK *      CLEAR     45  39  81 N9        29.98S                  
SHENANDOAH *   MOCLDY    46  39  76 N10       29.97S                  
$$
 
IAZ047>049-059>061-072>074-084-190500-
   CENTRAL IOWA
  
CITY           SKY/WX    TMP DP  RH WIND       PRES   REMARKS
AMES           CLEAR     45  38  76 N9        29.95R                  
ANKENY *       PTCLDY    46  39  76 N9        29.95S                  
BOONE *        MOCLDY    43  43 100 N10       29.94S                  
CHARITON *     CLOUDY    48  39  71 N9        29.91F                  
DES MOINES     PTCLDY    47  37  68 N8        29.94R                  
GRINNELL*      MOCLDY    44  38  80 N8        29.93S                  
KNOXVILLE *    CLOUDY    50  39  66 N13       29.91F                  
MARSHALLTOWN   PTCLDY    43  38  82 N9        29.92R                  
NEWTON *       MOCLDY    46  39  76 N12       29.92F                  
PELLA *        CLOUDY    48  38  68 N7        29.92F                  
PERRY *        FAIR      45  40  84 NW10      29.95S                  
$$
 
IAZ004>006-015-016-023>025-035-036-190500-
   NORTH CENTRAL IOWA
  
CITY           SKY/WX    TMP DP  RH WIND       PRES   REMARKS
ALGONA *       CLEAR     41  41 100 NW7       29.97R                  
CLARION *      CLEAR     41  39  93 N8        29.96S                  
ESTHERVILLE    CLEAR     37  36  96 NW7       29.99S WCI  32          
FORT DODGE *   CLEAR     42  38  85 N5        29.97F                  
MASON CITY     CLEAR     39  37  92 NW10      29.96S WCI  32          
FOREST CITY *  FAIR      43  37  81 N8        29.96F                  
IOWA FALLS *   FAIR      43  39  86 N9        29.94S                  
$$

IAZ007>011-017>019-026>030-037>042-050>054-066-190500-
   NORTHEAST IOWA
  
CITY           SKY/WX    TMP DP  RH WIND       PRES   REMARKS
CEDAR RAPIDS   FAIR      43  37  79 N10       29.88S                  
CHARLES CITY * FAIR      39  37  93 N8        29.94S WCI  34          
CLINTON *      CLOUDY    45  36  70 N16       29.84F                  
DECORAH *      FAIR      43  36  75 N6        29.91R                  
DUBUQUE        CLOUDY    44  34  67 N15G32    29.85S                  
MONTICELLO *   MOCLDY    46  37  71 N10G16    29.87S                  
OELWEIN *      FAIR      39  37  93 N6        29.92R WCI  35          
WATERLOO       FAIR      40  36  86 N8        29.93R WCI  34          
$$
 
IAZ064-065-067-068-078-190500-
   EAST CENTRAL IOWA
  
CITY           SKY/WX    TMP DP  RH WIND       PRES   REMARKS
DAVENPORT      CLOUDY    46  36  68 N14       29.85F                  
IOWA CITY      FAIR      47  35  63 N15G23    29.89S                  
MT. PLEASANT * CLOUDY    46  37  71 N14G21    29.87R                  
MUSCATINE *    CLOUDY    46  36  66 N13       29.86F                  
QUAD CITIES    CLOUDY    48  36  63 N10       29.82F                  
$$
 
IAZ062-063-075>077-085>089-095>099-190500-
   SOUTHEAST IOWA
  
CITY           SKY/WX    TMP DP  RH WIND       PRES   REMARKS
BURLINGTON     CLOUDY    48  35  60 N21G31    29.83F                  
FAIRFIELD *    CLOUDY    45  36  70 N10       29.87S                  
FORT MADISON * CLOUDY    48  37  66 N16G23    29.85S                  
KEOKUK *       CLOUDY    50  37  62 N13G21    29.83S                  
OSKALOOSA *    FAIR      46  35  67 N10       29.89F                  
CENTERVILLE *  FAIR      46  39  76 N14G24    29.90S                  
OTTUMWA        MOCLDY    46  35  65 N10       29.88F                  
WASHINGTON *   MOCLDY    45  37  76 N12       29.88S                  
$$

ABBREVIATIONS USED IN REMARKS
   TC - TEMPERATURES IN CELSIUS
  WCI - WIND CHILL INDEX
   HX - HEAT INDEX
  VSB - VISIBILITY  
$$